Weather observations for the past three days for
Hamilton Municipal Airport
Imperial (Metric)
Date Time (edt) Wind (mph) Vis. (mi.) Weather Sky Cond. Temperature (ºF) Relative Humidity Wind Chill (°F) Heat Index (°F) Pressure Precipitation (in)
Air Dwpt 6 hour altimeter (in) sea level (mb) 1 hr 3 hr 6 hr
Max. Min.
21 02:55 Calm 5.00 Fair with Haze CLR 64.4 0 0% 30.25 0.0
21 02:35 Calm 7.00 Fair CLR 64.4 0 0% 30.26 0.0
21 02:15 Calm 5.00 Fog/Mist CLR 64.4 64.4 100% 30.26 0.0
21 01:55 Calm 7.00 Fair CLR 64.4 64.4 100% 30.27 0.0
21 01:35 Calm 7.00 Fair CLR 64.4 64.4 100% 30.27 0.0
21 01:15 Calm 10.00 Fair CLR 64.4 64.4 100% 30.27 0.0
21 00:55 Calm 10.00 Fair CLR 64.4 64.4 100% 30.27 0.0
21 00:35 Calm 10.00 Fair CLR 66.2 64.4 94% 30.28 0.0
21 00:15 Calm 10.00 Fair CLR 66.2 64.4 94% 30.28 0.0
20 23:55 Calm 10.00 Fair CLR 68 64.4 88% 30.29 0.0
20 23:35 Calm 10.00 Fair CLR 68 64.4 88% 30.28 0.0
20 23:15 Calm 10.00 Fair CLR 68 64.4 88% 30.28 0.0
20 22:55 Calm 10.00 Fair CLR 68 64.4 88% 30.29 0.0
20 22:35 Calm 10.00 Fair CLR 69.8 64.4 83% 30.29 0.0
20 22:15 Calm 10.00 Fair CLR 69.8 64.4 83% 30.28 0.0
20 21:55 Calm 10.00 Fair CLR 69.8 64.4 83% 30.29 0.0
20 21:35 Calm 10.00 Fair CLR 71.6 66.2 83% 30.28 0.0
20 21:15 Calm 10.00 Fair CLR 71.6 68 88% 30.27 0.0
20 20:55 Calm 10.00 Fair CLR 73.4 68 83% 30.27 0.0
20 20:35 Calm 10.00 Fair CLR 73.4 68 83% 30.26 0.0
20 20:15 Calm 10.00 Fair CLR 77 68 74% 79 30.26 0.0
20 19:55 Calm 10.00 Fair CLR 78.8 68 70% 81 30.26 0.0
20 19:35 Calm 10.00 Fair CLR 80.6 66.2 62% 83 30.25 0.0
20 19:15 Calm 10.00 Fair CLR 80.6 64.4 58% 82 30.25 0.0
20 18:55 Calm 10.00 Fair CLR 80.6 66.2 62% 83 30.25 0.0
20 18:35 Calm 10.00 Fair CLR 80.6 66.2 62% 83 30.26 0.0
20 18:15 Calm 10.00 Fair CLR 80.6 64.4 58% 82 30.27 0.0
20 17:55 Calm 10.00 Fair CLR 78.8 64.4 61% 81 30.27 0.0
20 17:35 SW 5 10.00 Fair CLR 80.6 64.4 58% 82 30.27 0.0
20 17:15 S 5 10.00 Fair CLR 78.8 62.6 58% 80 30.28 0.0
20 16:55 SW 9 G 16 10.00 Partly Cloudy SCT060 SCT065 SCT075 78.8 62.6 58% 80 30.29 0.0
20 16:35 SW 3 10.00 Partly Cloudy SCT050 80.6 66.2 62% 83 30.29 0.0
20 16:15 Calm 10.00 Partly Cloudy SCT050 82.4 64.4 55% 84 30.28 0.0
20 15:55 E 3 10.00 Partly Cloudy SCT055 82.4 64.4 55% 84 30.29 0.0
20 15:35 SE 5 10.00 Partly Cloudy SCT055 80.6 64.4 58% 82 30.29 0.0
20 15:15 SE 7 10.00 Partly Cloudy SCT032 SCT044 SCT055 78.8 64.4 61% 81 30.29 0.0
20 14:55 SE 7 10.00 Mostly Cloudy SCT026 BKN034 BKN043 75.2 64.4 69% 77 30.3 0.0
20 14:35 E 8 10.00 Mostly Cloudy SCT036 BKN044 BKN060 80.6 69.8 70% 84 30.31 0.0
20 14:15 NW 6 10.00 Mostly Cloudy SCT036 BKN042 BKN048 80.6 69.8 70% 84 30.29 0.0
20 13:55 N 8 10.00 Mostly Cloudy SCT036 BKN042 BKN060 82.4 69.8 66% 86 30.3 0.0
20 13:35 Calm 10.00 Mostly Cloudy SCT065 BKN120 87.8 69.8 55% 93 30.3 0.0
20 13:15 W 3 10.00 Fair CLR 87.8 69.8 55% 93 30.31 0.0
20 12:55 Calm 10.00 Fair CLR 87.8 69.8 55% 93 30.31 0.0
20 12:35 S 3 10.00 Fair CLR 86 69.8 59% 91 30.32 0.0
20 12:15 Calm 10.00 Fair CLR 84.2 69.8 62% 88 30.32 0.0
20 11:55 Calm 10.00 Fair CLR 84.2 68 58% 87 30.32 0.0
20 11:35 Calm 10.00 Fair CLR 82.4 68 62% 85 30.33 0.0
20 11:15 Calm 10.00 Fair CLR 82.4 68 62% 85 30.33 0.0
20 10:55 Calm 10.00 Fair CLR 80.6 68 66% 83 30.34 0.0
20 10:35 Calm 10.00 Partly Cloudy SCT020 80.6 68 66% 83 30.34 0.0
20 10:15 Calm 10.00 Partly Cloudy SCT022 78.8 68 70% 81 30.34 0.0
20 09:55 Calm 10.00 Mostly Cloudy BKN022 77 68 74% 79 30.34 0.0
20 09:35 Calm 10.00 Partly Cloudy SCT024 78.8 68 70% 81 30.34 0.0
20 09:15 Calm 10.00 Fair CLR 78.8 68 70% 81 30.34 0.0
20 08:55 N 8 10.00 Fair CLR 78.8 66.2 65% 81 30.34 0.0
20 08:35 Calm 10.00 Fair CLR 78.8 68 70% 81 30.34 0.0
20 08:15 Calm 10.00 Partly Cloudy SCT039 75.2 68 78% 76 30.34 0.0
20 07:55 Calm 10.00 Fair CLR 75.2 68 78% 76 30.34 0.0
20 07:35 Calm 10.00 Fair CLR 73.4 68 83% 30.34 0.0
20 07:15 Calm 7.00 Fair CLR 71.6 68 88% 30.33 0.0
20 06:55 Calm 7.00 Fair CLR 69.8 68 94% 30.33 0.0
20 06:35 Calm 7.00 Fair CLR 69.8 68 94% 30.32 0.0
20 06:15 Calm 7.00 Fair CLR 69.8 68 94% 30.32 0.0
20 05:55 Calm 5.00 Fog/Mist CLR 68 68 100% 30.32 0.0
20 05:35 Calm 7.00 Fair CLR 69.8 68 94% 30.32 0.0
20 05:15 Calm 10.00 Fair CLR 69.8 68 94% 30.32 0.0
20 04:55 Calm 2.50 Fog/Mist CLR 69.8 68 94% 30.31 0.0
20 04:35 Calm 10.00 Fair CLR 69.8 68 94% 30.31 0.0
20 04:15 Calm 10.00 Fair CLR 71.6 68 88% 30.31 0.0
20 03:55 Calm 10.00 Fair CLR 69.8 68 94% 30.31 0.0
20 03:35 Calm 10.00 Fair CLR 69.8 69.8 100% 30.29 0.0
20 03:15 Calm 7.00 Fair CLR 69.8 69.8 100% 30.3 0.0
20 02:55 Calm 7.00 Fair CLR 69.8 69.8 100% 30.31 0.0
20 02:35 Calm 7.00 Fair CLR 69.8 69.8 100% 30.31 0.0
20 02:15 Calm 5.00 Fog/Mist CLR 69.8 69.8 100% 30.32 0.0
20 01:55 Calm 4.00 Fog/Mist CLR 69.8 69.8 100% 30.32 0.0
20 01:35 Calm 5.00 Fog/Mist CLR 69.8 69.8 100% 30.32 0.0
20 01:15 Calm 7.00 Fair CLR 69.8 69.8 100% 30.32 0.0
20 00:55 Calm 7.00 Fair CLR 69.8 69.8 100% 30.32 0.0
20 00:35 Calm 7.00 Fair CLR 71.6 69.8 94% 30.32 0.0
20 00:15 Calm 7.00 Fair CLR 71.6 68 88% 30.32 0.0
19 23:55 Calm 7.00 Fair CLR 71.6 69.8 94% 30.32 0.0
19 23:35 Calm 7.00 Fair CLR 71.6 69.8 94% 30.32 0.0
19 23:15 Calm 7.00 Fair CLR 71.6 69.8 94% 30.32 0.0
19 22:55 Calm 10.00 Fair CLR 71.6 69.8 94% 30.32 0.0
19 22:35 Calm 10.00 Fair CLR 73.4 69.8 89% 30.32 0.0
19 22:15 Calm 10.00 Fair CLR 73.4 69.8 89% 30.32 0.0
19 21:55 Calm 10.00 Fair CLR 73.4 69.8 89% 30.32 0.0
19 21:35 Calm 7.00 Fair CLR 75.2 69.8 83% 75 30.31 0.0
19 21:15 Calm 7.00 Fair CLR 75.2 69.8 83% 75 30.31 0.0
19 20:55 Calm 10.00 Fair CLR 77 69.8 79% 79 30.3 0.0
19 20:35 Calm 10.00 Fair CLR 78.8 71.6 79% 82 30.29 0.0
19 20:15 Calm 10.00 Fair CLR 82.4 69.8 66% 86 30.29 0.0
19 19:55 Calm 10.00 Fair CLR 84.2 69.8 62% 88 30.29 0.0
19 19:35 Calm 10.00 Fair CLR 86 69.8 59% 91 30.29 0.0
19 19:15 Calm 10.00 Fair CLR 86 71.6 62% 92 30.29 0.0
19 18:55 Calm 10.00 Fair CLR 86 69.8 59% 91 30.29 0.0
19 18:35 Calm 10.00 Fair CLR 86 69.8 59% 91 30.29 0.0
19 18:15 Calm 10.00 Fair CLR 86 69.8 59% 91 30.29 0.0
19 17:55 SW 3 10.00 Fair CLR 86 68 55% 89 30.29 0.0
19 17:35 Calm 10.00 Fair CLR 87.8 68 52% 91 30.29 0.0
19 17:15 Calm 10.00 Fair CLR 86 68 55% 89 30.29 0.0
19 16:55 Calm 10.00 Fair CLR 87.8 68 52% 91 30.28 0.0
19 16:35 SW 3 10.00 Fair CLR 87.8 68 52% 91 30.29 0.0
19 16:15 Calm 10.00 Fair CLR 87.8 68 52% 91 30.29 0.0
19 15:55 W 3 10.00 Fair CLR 87.8 68 52% 91 30.29 0.0
19 15:35 SW 5 10.00 Fair CLR 87.8 68 52% 91 30.3 0.0
19 15:15 Calm 10.00 Fair CLR 87.8 69.8 55% 93 30.3 0.0
19 14:55 Calm 10.00 Fair CLR 86 69.8 59% 91 30.31 0.0
19 14:35 Calm 10.00 Partly Cloudy SCT044 SCT050 86 69.8 59% 91 30.31 0.0
19 14:15 Calm 10.00 Partly Cloudy SCT050 SCT110 86 69.8 59% 91 30.32 0.0
19 13:55 NE 9 G 17 10.00 Partly Cloudy SCT042 SCT050 SCT065 82.4 69.8 66% 86 30.33 0.0
19 13:35 Calm 10.00 Partly Cloudy SCT042 SCT048 SCT055 87.8 68 52% 91 30.32 0.0
19 13:15 Calm 10.00 Partly Cloudy SCT046 SCT055 87.8 68 52% 91 30.32 0.0
19 12:55 Calm 10.00 Partly Cloudy SCT060 87.8 68 52% 91 30.32 0.0
19 12:35 Calm 10.00 Partly Cloudy SCT060 87.8 68 52% 91 30.33 0.0
19 12:15 Calm 10.00 Partly Cloudy SCT049 SCT060 87.8 68 52% 91 30.31 0.0
19 11:55 Calm 10.00 Partly Cloudy SCT060 87.8 68 52% 91 30.33 0.0
19 11:35 Calm 10.00 Partly Cloudy SCT050 87.8 69.8 55% 93 30.33 0.0
19 11:15 Calm 10.00 Mostly Cloudy BKN050 86 69.8 59% 91 30.34 0.0
19 10:55 Calm 10.00 Fair CLR 86 69.8 59% 91 30.33 0.0
19 10:35 Calm 10.00 Fair CLR 84.2 69.8 62% 88 30.34 0.0
19 10:15 Calm 10.00 Fair CLR 82.4 68 62% 85 30.34 0.0
19 09:55 S 6 10.00 Fair CLR 82.4 69.8 66% 86 30.34 0.0
19 09:35 Calm 10.00 Fair CLR 82.4 69.8 66% 86 30.34 0.0
19 09:15 Calm 10.00 Fair CLR 80.6 69.8 70% 84 30.34 0.0
19 08:55 Calm 10.00 Fair CLR 80.6 69.8 70% 84 30.34 0.0
19 08:35 Calm 10.00 Fair CLR 75.2 69.8 83% 75 30.34 0.0
19 08:15 N 3 10.00 Fair CLR 75.2 69.8 83% 75 30.34 0.0
19 07:55 Calm 10.00 Fair CLR 75.2 69.8 83% 75 30.34 0.0
19 07:35 Calm 10.00 Fair CLR 77 68 74% 79 30.33 0.0
19 07:15 Calm 10.00 Fair CLR 75.2 68 78% 76 30.32 0.0
19 06:55 Calm 10.00 Fair CLR 73.4 68 83% 30.32 0.0
19 06:35 SE 5 10.00 Fair CLR 73.4 68 83% 30.31 0.0
19 06:15 Calm 10.00 Fair CLR 71.6 68 88% 30.31 0.0
19 05:55 SE 6 10.00 Fair CLR 73.4 68 83% 30.3 0.0
19 05:35 Calm 10.00 Fair CLR 71.6 68 88% 30.3 0.0
19 04:55 Calm 10.00 Fair CLR 73.4 68 83% 30.29 0.0
19 04:35 Calm 10.00 Fair CLR 71.6 68 88% 30.28 0.0
19 04:15 E 5 10.00 Fair CLR 71.6 68 88% 30.28 0.0
19 03:55 Calm 10.00 Fair CLR 71.6 68 88% 30.28 0.0
19 03:35 Calm 10.00 Fair CLR 71.6 68 88% 30.28 0.0
19 03:15 Calm 10.00 Fair CLR 71.6 68 88% 30.28 0.0
19 02:55 SE 3 10.00 Fair CLR 69.8 68 94% 30.27 0.0
19 02:35 Calm 7.00 Fair CLR 69.8 68 94% 30.27 0.0
19 02:15 Calm 7.00 Fair CLR 69.8 68 94% 30.27 0.0
19 01:55 Calm 10.00 Fair CLR 71.6 68 88% 30.26 0.0
19 01:35 Calm 10.00 Fair CLR 71.6 68 88% 30.26 0.0
19 00:55 Calm 10.00 Fair CLR 73.4 68 83% 30.26 0.0
19 00:35 Calm 10.00 Fair CLR 71.6 68 88% 30.25 0.0
19 00:15 Calm 10.00 Fair CLR 71.6 68 88% 30.25 0.0
18 23:55 Calm 10.00 Fair CLR 71.6 68 88% 30.25 0.0
18 23:35 Calm 10.00 Fair CLR 71.6 68 88% 30.26 0.0
18 23:15 Calm 10.00 Fair CLR 71.6 68 88% 30.26 0.0
18 22:55 Calm 10.00 Fair CLR 71.6 68 88% 30.25 0.0
18 22:35 Calm 10.00 Fair CLR 71.6 68 88% 30.25 0.0
18 22:15 Calm 10.00 Fair CLR 71.6 68 88% 30.24 0.0
18 21:55 Calm 10.00 Fair CLR 73.4 68 83% 30.23 0.0
18 21:35 Calm 10.00 Fair CLR 73.4 68 83% 30.23 0.0
18 21:15 Calm 10.00 Fair CLR 75.2 68 78% 76 30.22 0.0
18 20:55 Calm 10.00 Fair CLR 77 69.8 79% 79 30.22 0.0
18 20:35 Calm 10.00 Fair CLR 78.8 68 70% 81 30.22 0.0
18 20:15 Calm 10.00 Fair CLR 78.8 68 70% 81 30.22 0.0
18 19:55 Calm 10.00 Fair CLR 82.4 68 62% 85 30.21 0.0
18 19:35 Calm 10.00 Fair CLR 86 66.2 52% 88 30.21 0.0
18 19:15 Calm 10.00 Fair CLR 86 64.4 49% 87 30.2 0.0
18 18:55 Calm 10.00 Fair CLR 87.8 64.4 46% 89 30.2 0.0
18 18:35 Calm 10.00 Partly Cloudy SCT050 SCT120 87.8 64.4 46% 89 30.2 0.0
18 18:15 Calm 10.00 Partly Cloudy SCT050 SCT120 87.8 68 52% 91 30.2 0.0
18 17:55 Calm 10.00 Fair CLR 87.8 66.2 49% 90 30.2 0.0
18 17:35 Calm 10.00 Fair CLR 89.6 68 49% 93 30.2 0.0
18 17:15 Calm 10.00 Fair CLR 87.8 66.2 49% 90 30.2 0.0
18 16:35 Calm 10.00 Fair CLR 87.8 68 52% 91 30.21 0.0
18 16:15 Calm 10.00 Fair CLR 87.8 68 52% 91 30.21 0.0
18 15:55 Calm 10.00 Fair CLR 89.6 68 49% 93 30.21 0.0
18 15:35 Calm 10.00 Fair CLR 87.8 68 52% 91 30.21 0.0
18 15:15 Calm 10.00 Fair CLR 87.8 68 52% 91 30.22 0.0
18 14:55 S 3 10.00 Fair CLR 87.8 68 52% 91 30.22 0.0
18 14:35 SE 9 10.00 Fair CLR 87.8 68 52% 91 30.22 0.0
18 14:15 Calm 10.00 Partly Cloudy SCT041 87.8 68 52% 91 30.22 0.0
18 13:55 Calm 10.00 Partly Cloudy SCT041 87.8 68 52% 91 30.22 0.0
18 13:35 Calm 10.00 Partly Cloudy SCT043 SCT060 87.8 68 52% 91 30.22 0.0
18 13:15 Calm 10.00 Mostly Cloudy BKN043 86 68 55% 89 30.23 0.0
18 12:55 Calm 10.00 Mostly Cloudy BKN041 BKN050 86 66.2 52% 88 30.23 0.0
18 12:35 Calm 10.00 Mostly Cloudy BKN039 BKN050 84.2 68 58% 87 30.24 0.0
18 12:15 Calm 10.00 Partly Cloudy SCT041 SCT047 SCT060 84.2 68 58% 87 30.24 0.0
18 11:55 Calm 10.00 Partly Cloudy SCT043 SCT049 SCT060 86 64.4 49% 87 30.24 0.0
18 11:35 Calm 10.00 Fair CLR 86 66.2 52% 88 30.24 0.0
18 11:15 Calm 10.00 Fair CLR 86 64.4 49% 87 30.25 0.0
18 10:55 Calm 10.00 Fair CLR 82.4 64.4 55% 84 30.25 0.0
18 10:35 Calm 10.00 Fair CLR 82.4 64.4 55% 84 30.25 0.0
18 10:15 Calm 10.00 Fair CLR 80.6 64.4 58% 82 30.25 0.0
18 09:55 Calm 10.00 Fair CLR 80.6 64.4 58% 82 30.25 0.0
18 09:35 Calm 10.00 Fair CLR 78.8 64.4 61% 81 30.24 0.0
18 09:15 Calm 10.00 Fair CLR 77 64.4 65% 79 30.24 0.0
18 08:55 Calm 10.00 Fair CLR 77 64.4 65% 79 30.24 0.0
18 08:35 Calm 10.00 Fair CLR 75.2 62.6 65% 77 30.24 0.0
18 08:15 Calm 10.00 Fair CLR 73.4 62.6 69% 30.23 0.0
18 07:55 Calm 10.00 Fair CLR 71.6 62.6 73% 30.23 0.0
18 07:35 Calm 10.00 Fair CLR 71.6 62.6 73% 30.22 0.0
18 07:15 Calm 10.00 Fair CLR 69.8 62.6 78% 30.22 0.0
18 06:55 Calm 10.00 Fair CLR 69.8 62.6 78% 30.2 0.0
18 06:35 Calm 10.00 Fair CLR 68 62.6 83% 30.2 0.0
18 06:15 Calm 10.00 Fair CLR 68 62.6 83% 30.2 0.0
18 05:55 Calm 10.00 Partly Cloudy SCT120 68 62.6 83% 30.19 0.0
18 05:35 Calm 10.00 Partly Cloudy SCT120 68 62.6 83% 30.19 0.0
18 05:15 Calm 10.00 Fair CLR 68 62.6 83% 30.19 0.0
18 04:55 Calm 10.00 Fair CLR 68 62.6 83% 30.18 0.0
18 04:35 Calm 10.00 Fair CLR 66.2 60.8 83% 30.18 0.0
18 04:15 Calm 10.00 Fair CLR 68 62.6 83% 30.17 0.0
18 03:55 Calm 10.00 Fair CLR 66.2 62.6 88% 30.17 0.0
18 03:35 Calm 10.00 Fair CLR 68 62.6 83% 30.17 0.0
18 03:15 Calm 10.00 Fair CLR 68 62.6 83% 30.16 0.0
Date Time (edt) Wind (mph) Vis. (mi.) Weather Sky Cond. Air Dwpt Max. Min. Relative Humidity Wind Chill (°F) Heat Index (°F) altimeter (in) sea level (mb) 1 hr 3 hr 6 hr
6 hour
Temperature (ºF) Pressure Precipitation (in)